Date String (YYYY-MM-DD hh:mm:ss) UTC,Instrument flags,Ambient pressure (hPa),Sample flow (lpm),Bypass flow (lpm),Sample temperature (°C),Ambient temperature (°C),ASC tube jacket temperature (°C),LED temperature (°C),Box temperature (°C),Sample RH (%),Span deviation,Mass concentration (μg/m³),Mass concentration (μg/m³),Mass concentration (μg/m³)
DateTimeUTC,F1_M11,P_M11,Q1_M11,Q2_M11,T1_M11,T2_M11,T3_M11,T4_M11,T5_M11,U1_M11,ZSPAN_M11,X0_M11,X2_M11,X1_M11
2022-03-05 13:00:00,,0815.3,5.00,0.00,23.5,22.7,00.0,32.5,25.2,18.4,0000.7,0015.84,0010.06,0009.27
2022-03-05 13:01:00,,0815.3,5.00,0.00,23.4,22.7,00.0,32.5,25.2,18.4,0000.7,0016.42,0010.11,0009.31
2022-03-05 13:02:00,,0815.2,5.00,0.00,23.5,22.7,00.0,32.5,25.2,18.4,0000.8,0016.17,0010.14,0009.33
2022-03-05 13:03:00,,0815.2,5.00,0.00,23.4,22.7,00.0,32.5,25.1,18.5,0000.5,0016.49,0010.22,0009.36
2022-03-05 13:04:00,,0815.2,5.00,0.00,23.4,22.6,00.0,32.5,25.1,18.4,0000.3,0017.25,0010.25,0009.39
2022-03-05 13:05:00,,0815.2,5.01,0.00,23.4,22.5,00.0,32.5,25.1,18.4,0000.2,0017.45,0010.34,0009.45
2022-03-05 13:06:00,,0815.2,5.00,0.00,23.3,22.5,00.0,32.5,25.0,18.4,0000.0,0017.12,0010.42,0009.50
2022-03-05 13:07:00,,0815.2,4.98,0.00,23.3,22.4,00.0,32.5,25.0,18.5,0000.3,0016.95,0010.45,0009.56
2022-03-05 13:08:00,,0815.2,5.00,0.00,23.3,22.4,00.0,32.4,25.0,18.6,0000.3,0016.91,0010.50,0009.61
2022-03-05 13:09:00,,0815.2,5.00,0.00,23.3,22.4,00.0,32.4,25.0,18.5,0000.2,0016.86,0010.53,0009.63
2022-03-05 13:10:00,,0815.2,5.00,0.00,23.3,22.4,00.0,32.4,25.0,18.6,0000.3,0016.75,0010.55,0009.69
2022-03-05 13:11:00,,0815.2,5.00,0.00,23.3,22.4,00.0,32.4,25.0,18.6,0000.5,0017.32,0010.60,0009.72
2022-03-05 13:12:00,,0815.2,5.00,0.00,23.3,22.4,00.0,32.4,25.0,18.7,0000.4,0017.16,0010.58,0009.71
2022-03-05 13:13:00,,0815.2,4.99,0.00,23.3,22.5,00.0,32.4,25.0,18.7,0000.4,0016.88,0010.56,0009.72
2022-03-05 13:14:00,,0815.2,5.02,0.00,23.3,22.5,00.0,32.4,25.0,18.6,0000.4,0016.76,0010.59,0009.74
2022-03-05 13:15:00,,0815.2,5.00,0.00,23.3,22.5,00.0,32.4,25.0,18.6,0000.7,0016.22,0010.67,0009.78
2022-03-05 13:16:00,,0815.2,4.99,0.00,23.3,22.6,00.0,32.4,25.1,18.6,0000.8,0016.11,0010.72,0009.80
2022-03-05 13:17:00,,0815.2,5.00,0.00,23.3,22.6,00.0,32.3,25.1,18.6,0000.7,0016.06,0010.70,0009.79
2022-03-05 13:18:00,,0815.2,5.00,0.00,23.3,22.6,00.0,32.3,25.1,18.6,0000.5,0016.18,0010.73,0009.79
2022-03-05 13:19:00,,0815.2,5.01,0.00,23.3,22.6,00.0,32.3,25.1,18.6,0000.5,0016.28,0010.75,0009.78
2022-03-05 13:20:00,,0815.2,4.99,0.00,23.3,22.6,00.0,32.3,25.1,18.6,0000.4,0016.52,0010.78,0009.80
2022-03-05 13:21:00,,0815.1,5.00,0.00,23.3,22.7,00.0,32.3,25.1,18.6,0000.1,0017.14,0010.81,0009.81
2022-03-05 13:22:00,,0815.1,5.00,0.00,23.3,22.7,00.0,32.3,25.1,18.5,-000.1,0016.52,0010.79,0009.82
2022-03-05 13:23:00,,0815.3,5.00,0.00,23.3,22.7,00.0,32.4,25.2,18.5,0000.1,0016.16,0010.83,0009.84
2022-03-05 13:24:00,,0815.3,5.00,0.00,23.4,22.8,00.0,32.4,25.2,18.5,0000.2,0016.15,0010.83,0009.84
2022-03-05 13:25:00,,0815.2,5.00,0.00,23.4,22.8,00.0,32.4,25.2,18.4,0000.2,0016.02,0010.79,0009.85
2022-03-05 13:26:00,,0815.1,5.00,0.00,23.4,22.9,00.0,32.4,25.2,18.4,0000.1,0016.15,0010.77,0009.85
2022-03-05 13:27:00,,0815.1,5.01,0.00,23.4,22.9,00.0,32.4,25.3,18.4,-000.2,0016.30,0010.72,0009.82
2022-03-05 13:28:00,,0815.1,5.00,0.00,23.5,22.9,00.0,32.4,25.3,18.4,-000.3,0016.28,0010.69,0009.79
2022-03-05 13:29:00,,0815.1,4.99,0.00,23.5,22.9,00.0,32.4,25.3,18.5,-000.4,0016.36,0010.69,0009.80
2022-03-05 13:30:00,,0815.1,5.00,0.00,23.5,22.9,00.0,32.4,25.3,18.4,-000.5,0016.88,0010.67,0009.79
2022-03-05 13:31:00,,0815.1,5.00,0.00,23.5,23.0,00.0,32.4,25.4,18.3,-000.3,0016.98,0010.73,0009.81
2022-03-05 13:32:00,,0815.1,5.00,0.00,23.5,23.0,00.0,32.4,25.4,18.3,-000.2,0016.53,0010.71,0009.80
2022-03-05 13:33:00,,0815.1,5.00,0.00,23.6,23.0,00.0,32.5,25.4,18.2,0000.2,0017.38,0010.75,0009.79
2022-03-05 13:34:00,,0815.1,5.01,0.00,23.6,23.0,00.0,32.5,25.4,18.2,0000.1,0017.44,0010.74,0009.80
2022-03-05 13:35:00,,0815.3,5.00,0.00,23.6,23.0,00.0,32.5,25.4,18.3,-000.1,0017.62,0010.72,0009.78
2022-03-05 13:36:00,,0815.3,5.00,0.00,23.6,23.0,00.0,32.5,25.4,18.3,-000.2,0017.71,0010.73,0009.75
2022-03-05 13:37:00,,0815.2,5.00,0.00,23.6,23.0,00.0,32.5,25.5,18.3,0000.0,0017.39,0010.64,0009.71
2022-03-05 13:38:00,,0815.2,5.01,0.00,23.6,23.0,00.0,32.5,25.5,18.3,0000.4,0017.73,0010.61,0009.69
2022-03-05 13:39:00,,0815.3,5.00,0.00,23.6,23.1,00.0,32.5,25.5,18.3,0000.5,0017.98,0010.60,0009.69
2022-03-05 13:40:00,,0815.2,4.99,0.00,23.7,23.1,00.0,32.5,25.5,18.2,0000.6,0018.06,0010.61,0009.68
2022-03-05 13:41:00,,0815.2,4.99,0.00,23.7,23.0,00.0,32.6,25.5,18.2,0000.7,0017.56,0010.56,0009.67
2022-03-05 13:42:00,,0815.2,5.01,0.00,23.7,23.1,00.0,32.6,25.5,18.2,0000.7,0017.36,0010.46,0009.62
2022-03-05 13:43:00,,0815.2,5.01,0.00,23.7,23.1,00.0,32.6,25.5,18.2,0000.6,0017.52,0010.47,0009.61
2022-03-05 13:44:00,,0815.3,5.01,0.00,23.7,23.1,00.0,32.6,25.5,18.2,0000.4,0016.92,0010.42,0009.59
2022-03-05 13:45:00,,0815.3,5.00,0.00,23.7,23.0,00.0,32.6,25.5,18.2,0000.2,0017.29,0010.36,0009.55
2022-03-05 13:46:00,,0815.3,5.01,0.00,23.7,23.0,00.0,32.6,25.5,18.2,0000.3,0017.19,0010.37,0009.53
2022-03-05 13:47:00,,0815.2,5.00,0.00,23.7,23.1,00.0,32.6,25.5,18.3,0000.2,0017.20,0010.36,0009.52
2022-03-05 13:48:00,,0815.2,5.01,0.00,23.7,23.1,00.0,32.6,25.5,18.2,-000.1,0017.44,0010.39,0009.53
2022-03-05 13:49:00,,0815.3,5.00,0.00,23.7,23.1,00.0,32.6,25.5,18.3,-000.2,0016.95,0010.45,0009.54
2022-03-05 13:50:00,,0815.3,4.99,0.00,23.7,23.1,00.0,32.6,25.5,18.3,-000.3,0016.71,0010.46,0009.52
2022-03-05 13:51:00,,0815.3,5.00,0.00,23.7,23.1,00.0,32.6,25.5,18.3,-000.4,0016.78,0010.40,0009.53
2022-03-05 13:52:00,,0815.3,4.99,0.00,23.7,23.1,00.0,32.6,25.5,18.3,-000.4,0016.58,0010.41,0009.52
2022-03-05 13:53:00,,0815.3,5.00,0.00,23.7,23.1,00.0,32.7,25.5,18.3,-000.3,0016.39,0010.44,0009.55
2022-03-05 13:54:00,,0815.3,5.00,0.00,23.7,23.1,00.0,32.7,25.5,18.3,-000.1,0016.10,0010.35,0009.50
2022-03-05 13:55:00,,0815.4,5.00,0.00,23.7,23.1,00.0,32.7,25.5,18.3,-000.1,0015.91,0010.36,0009.50
2022-03-05 13:56:00,,0815.4,5.00,0.00,23.7,23.1,00.0,32.7,25.5,18.3,0000.1,0015.47,0010.37,0009.50
2022-03-05 13:57:00,,0815.4,5.00,0.00,23.7,23.1,00.0,32.7,25.5,18.3,0000.0,0015.46,0010.37,0009.51
2022-03-05 13:58:00,,0815.4,5.00,0.00,23.7,23.1,00.0,32.7,25.5,18.3,0000.2,0015.40,0010.39,0009.51
2022-03-05 13:59:00,,0815.4,5.00,0.00,23.8,23.1,00.0,32.7,25.5,18.3,0000.2,0015.29,0010.42,0009.52
